Flag for U.S.A. Weather past 2 weeks in Oklahoma City, Oklahoma, U.S.A.

Now
46 °F

Partly sunny.


Feels Like: 40 °F
Forecast: 45 / 59 °F
Wind: 15 mph from Northeast

Location: Will Rogers World Airport

Current Time: Mar 27, 2015 at 10:49:36 AM

Latest Report: Mar 27, 2015 at 9:52 AM


Visibility: 10 mi

Pressure: 30.22 "Hg

Humidity: 68%

Dew point: 36 °F

Location of Oklahoma CityLocation

Historic Weather in Oklahoma City — Graph

°F

Oklahoma City temperature yesterday

Maximum temperature yesterday: 61 °F (at 3:52 PM)
Minimum temperature yesterday: 42 °F (at 7:52 AM)
Average temperature yesterday: 50 °F

Past Weeks' High & Low Weather Summary

 TemperatureHumidityPressure
High84 °F (Mar 25, 1:52 PM)94% (Mar 19, 3:59 AM)30.33 "Hg (Mar 19, 3:59 AM)
Low42 °F (Mar 26, 7:52 AM)23% (Mar 12, 2:52 PM)29.65 "Hg (Mar 25, 5:52 PM)
Average58 °F65%30.05 "Hg
* Reported Mar 12 9:52 AM — Mar 27 9:52 AM, Oklahoma City, Weather by CustomWeather, © 2015

Note: Actual official high and low records may vary slightly from our data, if they occured in-between our weather recording intervals... More about our weather records

Advertising

Oklahoma City weather history for previous 24 hours

 ConditionsComfort  
Time TempWeatherWind HumidityBarometerVisibility
9:52 AM
Fri, Mar 27
46 °FPartly sunny.15 mph68%30.22 "Hg10 mi
8:52 AM45 °FPartly sunny.18 mph65%30.16 "Hg10 mi
7:52 AM45 °FPassing clouds.17 mph63%30.13 "Hg10 mi
6:52 AM50 °FPassing clouds.23 mph57%30.10 "Hg10 mi
5:52 AM53 °FMostly cloudy.15 mph51%30.09 "Hg10 mi
4:52 AM53 °FOvercast.15 mph48%30.07 "Hg10 mi
3:52 AM51 °FOvercast.16 mph52%30.06 "Hg10 mi
2:52 AM48 °FPartly cloudy.10 mph56%30.06 "Hg10 mi
1:52 AM47 °FPartly cloudy.9 mph61%30.06 "Hg10 mi
12:52 AM47 °FPassing clouds.6 mph56%30.07 "Hg10 mi
11:52 PM
Thu, Mar 26
44 °FPassing clouds.9 mph65%30.08 "Hg10 mi
10:52 PM43 °FClear.7 mph71%30.08 "Hg10 mi
9:52 PM47 °FClear.6 mph61%30.08 "Hg10 mi
8:52 PM50 °FPassing clouds.6 mph50%30.10 "Hg10 mi
7:52 PM55 °FPassing clouds.No wind39%30.11 "Hg10 mi
6:52 PM59 °FPassing clouds.7 mph32%30.11 "Hg10 mi
5:52 PM61 °FSunny.13 mph30%30.11 "Hg10 mi
4:52 PM61 °FPassing clouds.14 mph30%30.13 "Hg10 mi
3:52 PM61 °FPassing clouds.18 mph31%30.14 "Hg10 mi
2:52 PM59 °FPassing clouds.18 mph32%30.17 "Hg10 mi
1:52 PM57 °FScattered clouds.17 mph37%30.20 "Hg10 mi
12:52 PM54 °FSunny.18 mph43%30.22 "Hg10 mi
11:52 AM52 °FSunny.17 mph45%30.22 "Hg10 mi
10:52 AM49 °FSunny.18 mph52%30.23 "Hg10 mi
Weather by CustomWeather, © 2015

See weather overviewHow to use our weather pages